Regional Weather Roundup
Issued by NWS

Home | Current Version | Previous Version | Graphics & Text | Print | Product List | Glossary On
Versions: 1 2 3 4 5 6 7 8 9 10 11 12 13 14 15 16 17 18 19 20 21 22 23 24 25 26 27 28 29 30 31 32 33 34 35 36 37 38 39 40 41 42 43 44 45 46 47 48 49 50
000
ASUS43 KLOT 271708
RWRIL

ILLINOIS REGIONAL WEATHER ROUNDUP
NATIONAL WEATHER SERVICE CHICAGO/ROMEOVILLE IL
1200 PM CDT WED MAY 27 2015

NOTE: "FAIR" INDICATES FEW OR NO CLOUDS BELOW 12,000 FEET WITH NO
SIGNIFICANT WEATHER AND/OR OBSTRUCTIONS TO VISIBILITY.

* THESE STATIONS ARE NOT UNDER NWS QUALITY CONTROL. THEY ALSO MAY NOT
  REPORT WEATHER SUCH AS PRECIPITATION OR FOG.

ILZ001-002-007-009-015-016-024-271800-
NORTHWEST ILLINOIS

CITY           SKY/WX    TMP DP  RH WIND       PRES   REMARKS
MOLINE         MOSUNNY   73  59  61 W14       30.02S
STERLING*      PTSUNNY   72  61  68 W16       30.01S
SAVANNA*       PTSUNNY   71  58  64 W10       30.02R
$$

ILZ003-004-008-010-011-017-018-271800-
NORTH CENTRAL ILLINOIS

CITY           SKY/WX    TMP DP  RH WIND       PRES   REMARKS
ROCKFORD       PTSUNNY   71  58  63 W17G26    30.01R
FREEPORT*      PTSUNNY   67  59  76 W12       30.02R
ROCHELLE*      PTSUNNY   69  59  72 W18       30.01R
DE KALB*       PTSUNNY   68  60  75 W17G25    30.01R
PERU*          CLOUDY    70  58  66 W17G23    30.03R
$$

ILZ005-006-012>014-019>023-271800-
NORTHEAST ILLINOIS

CITY           SKY/WX    TMP DP  RH WIND       PRES   REMARKS
CHICAGO-OHARE  PTSUNNY   71  59  65 W15G23    29.97R
CHICAGO-MIDWAY PTSUNNY   73  58  59 W16G23    29.98R
AURORA         PTSUNNY   72  59  63 W21G29    30.00R
LANSING*       CLOUDY    73  56  56 W16G23    29.99R
JOLIET*        PTSUNNY   74  60  61 W12G20    30.00R
WAUKEGAN       PTSUNNY   69  62  78 VRB5      29.96R
DUPAGE AIRPORT CLOUDY    71  58  63 W15       29.98R
KANKAKEE*      CLOUDY    74  60  61 W20G25    30.01S
WHEELING       CLOUDY    69  59  70 W10       29.98R
MORRIS*        CLOUDY    70  60  69 W14       29.99R
ROMEOVILLE*    PTSUNNY   73  59  61 W18G25    30.00R
NORTHERLY ISL    N/A     72  56  57 SW7         N/A
$$

LMZ740>746-271800-
SOUTHERN LAKE MICHIGAN

STATION/POSITION SKY/WX   TEMP    WIND        PRES    VSBY  WAVE
                          AIR SEA DIR/SP/G                  HT/PER
                          (F)     (DEG/KT/KT) (MB)    (MI)  (FT/S)
SOUTHERN BUOY              46 38  240/  8/ 10 1015.1R         1/ 4
HARRISON CRIB              69     260/ 20/ 24   N/A
BURNHAM HARBOR             72     260/  9/ 18   N/A
CALUMET HARBOR             72     220/ 11/ 18   N/A
BURNS HARBOR               69     240/ 20/ 26 1015.2R
MICHIGAN CITY              61     210/ 11/ 12   N/A
MICHIGAN CITY 6N           58 52  260/  8/ 10   N/A           1/ 3
ST. JOSEPH                 59 56  280/ 10/ 10   N/A           1/ 3
$$

ILZ025>027-034>036-040-047-049-050-058-095>099-271800-
WEST-CENTRAL ILLINOIS

CITY           SKY/WX    TMP DP  RH WIND       PRES   REMARKS
QUINCY         SUNNY     72  58  61 NW16      30.07R
GALESBURG*     PTSUNNY   70  60  69 W10G16    30.05R
MACOMB*        PTSUNNY   71  60  70 W10       30.07S
JACKSONVILLE*  MOSUNNY   76  61  59 W14G21    30.05S
PITTSFIELD*    SUNNY     74  57  55 W15G25    30.07R
$$

ILZ028>032-037-038-041>044-048-051>054-059>061-271800-
CENTRAL ILLINOIS

CITY           SKY/WX    TMP DP  RH WIND       PRES   REMARKS
PONTIAC        PTSUNNY   74  62  65 W15       30.03R
BLOOMINGTON    CLOUDY    74  63  68 W13       30.04R
DECATUR        CLOUDY    75  65  70 W12       30.03F
PEORIA         PTSUNNY   75  60  59 W10       30.03R
LACON*         PTSUNNY   72  58  62 W10       30.02R
LINCOLN*       CLOUDY    77  63  60 SW7       30.00F
SPRINGFIELD    PTSUNNY   77  62  59 W14       30.03F
TAYLORVILLE    CLOUDY    73  64  73 SW15      30.04F
$$

ILZ033-039-045-046-055>057-062-063-271800-
EAST-CENTRAL ILLINOIS

CITY           SKY/WX    TMP DP  RH WIND       PRES   REMARKS
CHAMPAIGN      CLOUDY    76  64  66 W18G25    30.03F
DANVILLE*      CLOUDY    75  64  68 SW22      30.00S
RANTOUL*       CLOUDY    75  68  78 SW17G23   30.03F
PARIS*         CLOUDY    78  58  50 SW20G26   30.06S
$$

ILZ079-100>102-271800-
SOUTHWEST ILLINOIS

CITY           SKY/WX    TMP DP  RH WIND       PRES   REMARKS
ALTON          PTSUNNY   77  68  73 SW14      30.06S
BELLEVILLE     MOSUNNY   78  63  59 W9        30.05S HX  80
CAHOKIA*       SUNNY     78  59  51 SW7       30.06S
SPARTA*        MOSUNNY   72  64  77 W7        30.09R
$$

ILZ064>066-069>071-074>076-080>082-084>086-088>090-092>094-271800-
SOUTH-CENTRAL ILLINOIS

CITY           SKY/WX    TMP DP  RH WIND       PRES   REMARKS
CARBONDALE     MOSUNNY   73  65  75 S12       30.09R
CAIRO*         PTSUNNY   73  63  70 S8        30.11F
EFFINGHAM*     CLOUDY    74  57  56 S6        30.06F
MARION         PTSUNNY   73  64  73 MISG      30.09R
MT. VERNON     PTSUNNY   72  63  73 CALM      30.09R
CENTRALIA*     MOSUNNY   81  63  53 S5        30.05F HX  82
SALEM*         PTSUNNY   74  63  68 S6        30.06F
METROPOLIS*    PTSUNNY   74  66  75 S5        30.10F
$$

ILZ067-068-072-073-078-083-087-091-271800-
SOUTHEAST ILLINOIS

CITY           SKY/WX    TMP DP  RH WIND       PRES   REMARKS
LAWRENCEVILLE  CLOUDY    76  61  59 VRB6      30.06F
FLORA*         CLOUDY    72  60  65 W7        30.07F
FAIRFIELD*     CLOUDY    74  62  66 SW6       30.07R
HARRISBURG*    PTSUNNY   76  67  73 S12       30.08S
ROBINSON*      CLOUDY    73  60  63 W5        30.08F
CARMI*         PTSUNNY   77  61  57 S12       30.06S
$$

ABBREVIATIONS USED IN REMARKS
   TC - TEMPERATURE IN CELSIUS
  WCI - WIND CHILL INDEX
   HX - HEAT INDEX
  VSB - VISIBILITY
$$




USA.gov is the U.S. government's official web portal to all federal, state and local government web resources and services.